CW9143 Weather Reports


Display with metric or nautical units.
time (UTC)temp
F
wind
direction
speed
MPH
gust
MPH
rain 1hr
in
rain 24hr
in
rain mn
in
humidity
%
barometer
mb
20260502163041 78 243 2.0 4.0 0.00 0.00 0.00 12 1016.7
20260502161556 77 182 0.0 3.0 0.00 0.00 0.00 13 1016.7
20260502151536 66 210 1.0 2.0 0.00 0.00 0.00 17 1016.5
20260502123108 47 67 1.0 2.0 0.00 0.00 0.00 29 1015.4
20260502121537 48 80 0.0 1.0 0.00 0.00 0.00 28 1015.3
20260502114537 49 0 0.0 3.0 0.00 0.00 0.00 28 1015.1
20260502113038 49 116 0.0 1.0 0.00 0.00 0.00 27 1015.3
20260502111537 49 0 0.0 1.0 0.00 0.00 0.00 27 1015.2
20260502110045 50 336 0.0 1.0 0.00 0.00 0.00 27 1015.2
20260502104541 50 65 1.0 2.0 0.00 0.00 0.00 26 1015.1
20260502103034 49 0 0.0 1.0 0.00 0.00 0.00 26 1014.9
20260502101545 50 49 2.0 2.0 0.00 0.00 0.00 26 1014.9
20260502071534 62 0 0.0 1.0 0.00 0.00 0.00 19 1015.0
20260502070032 64 252 1.0 3.0 0.00 0.00 0.00 18 1014.9
20260502064538 64 146 2.0 4.0 0.00 0.00 0.00 18 1015.0
20260502063051 63 0 0.0 1.0 0.00 0.00 0.00 18 1014.8
20260502061536 65 0 0.0 2.0 0.00 0.00 0.00 17 1014.8
20260502060034 65 259 0.0 1.0 0.00 0.00 0.00 18 1014.6
20260502054534 66 248 0.0 2.0 0.00 0.00 0.00 17 1014.5
20260502053038 65 238 0.0 2.0 0.00 0.00 0.00 18 1014.4
20260502051536 67 0 0.0 1.0 0.00 0.00 0.00 17 1014.3
20260502050038 68 253 0.0 8.0 0.00 0.00 0.00 17 1014.4
20260502044533 69 0 0.0 1.0 0.00 0.00 0.00 16 1014.0
20260502043032 69 81 0.0 3.0 0.00 0.00 0.00 16 1013.9
20260502041532 67 65 1.0 3.0 0.00 0.00 0.00 17 1013.7
20260502040037 70 43 3.0 8.0 0.00 0.00 0.00 16 1013.6
20260502034538 72 23 4.0 8.0 0.00 0.00 0.00 15 1013.4
20260502033044 73 11 3.0 4.0 0.00 0.00 0.00 14 1013.2
20260502031533 72 351 2.0 5.0 0.00 0.00 0.00 14 1013.0
20260502030036 73 43 3.0 4.0 0.00 0.00 0.00 14 1012.8
20260502024540 75 52 5.0 8.0 0.00 0.00 0.00 14 1012.7
20260502023035 77 46 5.0 10.0 0.00 0.00 0.00 13 1012.6
20260502021536 79 44 5.0 11.0 0.00 0.00 0.00 12 1012.4
20260502020032 80 51 6.0 11.0 0.00 0.00 0.00 12 1012.4
20260502014534 81 42 9.0 15.0 0.00 0.00 0.00 12 1012.2
20260502013037 82 12 6.0 12.0 0.00 0.00 0.00 12 1012.2
20260502011533 83 28 3.0 11.0 0.00 0.00 0.00 12 1012.2
20260502010048 83 340 8.0 17.0 0.00 0.00 0.00 11 1012.2
20260502004552 83 306 6.0 15.0 0.00 0.00 0.00 12 1012.2
20260502003035 83 26 10.0 14.0 0.00 0.00 0.00 12 1012.3
20260502001535 83 317 4.0 13.0 0.00 0.00 0.00 12 1012.2
20260502000033 83 317 12.0 17.0 0.00 0.00 0.00 12 1012.6
20260501234536 83 25 7.0 15.0 0.00 0.00 0.00 12 1012.6
20260501233034 83 272 8.0 13.0 0.00 0.00 0.00 12 1012.5
20260501231533 83 339 9.0 18.0 0.00 0.00 0.00 12 1012.8
20260501230032 83 331 4.0 16.0 0.00 0.00 0.00 12 1012.8
20260501224533 81 35 4.0 13.0 0.00 0.00 0.00 13 1013.0
20260501223033 82 319 6.0 15.0 0.00 0.00 0.00 12 1013.2
20260501221534 83 291 10.0 19.0 0.00 0.00 0.00 12 1013.4
20260501220312 83 306 9.0 16.0 0.00 0.00 0.00 12 1013.5
20260501220038 83 306 9.0 16.0 0.00 0.00 0.00 12 1013.5
20260501214532 83 301 10.0 21.0 0.00 0.00 0.00 12 1013.6
20260501213046 82 291 9.0 21.0 0.00 0.00 0.00 12 1013.6
20260501211532 83 341 7.0 22.0 0.00 0.00 0.00 13 1014.0
20260501210040 82 308 7.0 17.0 0.00 0.00 0.00 12 1014.1
20260501204536 82 300 9.0 19.0 0.00 0.00 0.00 12 1014.1
20260501203032 82 302 9.0 19.0 0.00 0.00 0.00 13 1014.1
20260501201533 82 323 10.0 15.0 0.00 0.00 0.00 13 1014.4
20260501200032 81 307 8.0 16.0 0.00 0.00 0.00 14 1014.5
20260501194539 82 304 9.0 16.0 0.00 0.00 0.00 14 1014.5
20260501193034 81 316 7.0 18.0 0.00 0.00 0.00 15 1014.4
20260501191537 81 289 9.0 22.0 0.00 0.00 0.00 15 1014.6
20260501190031 80 316 2.0 9.0 0.00 0.00 0.00 16 1015.0
20260501184534 79 209 3.0 9.0 0.00 0.00 0.00 16 1015.0
20260501183035 79 265 9.0 15.0 0.00 0.00 0.00 16 1015.1
20260501181533 79 252 3.0 9.0 0.00 0.00 0.00 16 1015.3
20260501180044 79 271 4.0 7.0 0.00 0.00 0.00 15 1015.4
20260501174537 79 338 1.0 6.0 0.00 0.00 0.00 16 1015.5
20260501173039 77 250 0.0 4.0 0.00 0.00 0.00 17 1015.5